This is the latest recevied weather packets stored in our database for station/object WX7FGZ-6. If no packets are shown the sender has not sent any weather packets the latest 10 day(s).
| Time | Temp. | Humidity | Pressure | Rain* | Wind** | Luminosity | Snow |
|---|---|---|---|---|---|---|---|
| 1777774125 | 5° C | 39% | 1023 hPa | 0 mm | - | - | - |
| 1777769886 | 7.22° C | 38% | 1023.3 hPa | 0 mm | - | - | - |
| 1777769286 | 6.67° C | 36% | 1023.4 hPa | 0 mm | - | - | - |
| 1777767642 | 8.89° C | 34% | 1023.1 hPa | 0 mm | - | - | - |
| 1777767342 | 8.89° C | 35% | 1023.1 hPa | 0 mm | - | - | - |
| 1777764342 | 10° C | 30% | 1023.8 hPa | 0 mm | - | - | - |
| 1777764042 | 10° C | 30% | 1023.8 hPa | 0 mm | - | - | - |
| 1777763742 | 10° C | 29% | 1023.8 hPa | 0 mm | - | - | - |
| 1777761942 | 9.44° C | 29% | 1023.9 hPa | 0 mm | - | - | - |
| 1777761642 | 9.44° C | 31% | 1023.9 hPa | 0 mm | - | - | - |
| 1777761042 | 10° C | 28% | 1024.2 hPa | 0 mm | - | - | - |
| 1777760442 | 9.44° C | 31% | 1024.2 hPa | 0 mm | - | - | - |
| 1777760142 | 9.44° C | 34% | 1024.1 hPa | 0 mm | - | - | - |
| 1777759842 | 8.89° C | 32% | 1023.6 hPa | 0 mm | - | - | - |
| 1777759541 | 8.89° C | 33% | 1023.7 hPa | 0 mm | - | - | - |
| 1777759242 | 9.44° C | 33% | 1023.7 hPa | 0 mm | - | - | - |
| 1777758941 | 9.44° C | 34% | 1023.4 hPa | 0 mm | - | - | - |
| 1777758642 | 8.33° C | 37% | 1023.7 hPa | 0 mm | - | - | - |
| 1777758042 | 7.78° C | 34% | 1024 hPa | 0 mm | - | - | - |
| 1777757742 | 8.89° C | 32% | 1024.3 hPa | 0 mm | - | - | - |
| 1777757441 | 9.44° C | 34% | 1024.3 hPa | 0 mm | - | - | - |
| 1777757142 | 8.33° C | 37% | 1024.4 hPa | 0 mm | - | - | - |
| 1777755829 | 8.33° C | 35% | 1025 hPa | 0 mm | - | - | - |
| 1777754286 | 7.22° C | 35% | 1025.6 hPa | 0 mm | - | - | - |
| 1777751124 | 7.22° C | 38% | 1025.2 hPa | 0 mm | - | - | - |
* Rain latest hour (hover to see other rain measurements)
** Current wind speed in m/s (hover to see current wind gust speed)